Wind_Speed
7 5 15 19 16 10 5 6 2 4 7 13 18 27 21 16 24 26 34 37 40 47 45 45 48 45 41 38 36 27 30 31 32 29 34 38 37 34 31 26 22 22 22 20
2 17 8 3 5 11 11 10 8 6 11 5 10 21 16 12 16 26 27 29 34 36 44 34 32 29 25 25 27 27 29 30 31 31 34 37 34 32 25 21 21 21 18 19
6 6 9 9 4 6 5 9 9 6 9 16 9 20 12 10 17 29 35 37 38 34 35 39 34 35 34 30 31 31 27 24 27 29 35 34 26 22 23 24 25 24 17 17
7 9 8 6 12 13 15 4 7 5 5 9 6 15 20 20 20 13 22 29 32 37 42 35 37 33 30 29 32 29 27 25 25 28 29 27 27 26 27 24 21 15 15 16
7 3 4 13 11 6 6 11 9 10 8 4 4 4 28 8 14 20 20 29 42 46 41 39 38 35 32 26 25 31 28 24 21 21 20 22 24 24 22 19 15 12 15 15
10 17 6 7 10 8 4 7 9 6 3 6 12 9 27 10 15 9 9 23 32 31 27 26 31 33 36 28 21 25 24 19 15 14 15 16 22 24 21 19 14 14 16 17
1 15 16 10 7 5 4 4 2 2 4 13 12 13 23 5 4 6 7 18 26 29 30 27 29 29 17 15 20 20 19 17 15 15 16 18 20 20 19 16 15 16 16 16
0 5 8 4 8 6 6 9 4 6 7 6 13 13 9 10 14 24 25 29 28 30 31 31 22 12 13 19 21 20 19 19 19 20 20 20 19 18 16 14 14 15 14 12
1 6 3 4 3 4 2 4 8 4 4 2 5 8 10 11 19 8 13 16 28 26 22 16 12 17 22 21 20 20 20 22 22 21 20 20 19 16 14 15 14 12 10 9
3 3 4 5 2 5 6 3 3 1 4 5 6 7 11 2 13 5 8 9 18 15 15 16 19 23 22 21 22 22 21 25 23 22 20 17 15 13 13 13 12 10 7 6
3 1 4 3 3 4 2 3 3 4 5 4 3 7 6 13 5 9 14 19 17 20 21 23 25 24 23 24 24 24 26 26 24 21 18 16 13 12 11 9 9 9 7 9
2 3 4 8 6 5 4 3 2 3 9 4 3 7 11 3 7 8 17 13 20 25 27 28 27 27 26 27 27 27 27 26 22 18 15 14 11 8 8 7 7 9 11 12
2 2 4 8 3 3 1 4 4 1 2 6 5 6 5 8 9 12 9 7 23 29 31 30 28 28 29 30 29 27 26 24 20 17 16 14 10 7 6 6 7 12 12 12
6 4 5 5 6 3 6 11 4 4 3 5 19 11 25 14 17 14 2 6 10 33 33 31 29 30 31 30 29 27 25 21 19 19 16 11 8 7 5 8 8 11 13 9
4 5 5 9 12 14 13 17 16 11 8 5 9 10 14 13 17 14 17 18 17 24 32 32 32 31 30 29 30 27 24 23 21 19 16 10 6 7 7 10 7 17 15 7
5 3 3 11 14 11 17 20 19 16 14 10 10 24 9 14 17 10 19 25 25 21 30 33 32 32 31 30 29 27 24 25 23 19 18 8 6 7 11 14 14 14 11 7
6 3 3 7 9 12 10 16 19 11 8 13 10 13 10 11 11 9 2 24 30 27 34 35 33 32 31 30 27 26 25 25 22 18 15 8 8 9 11 13 15 14 10 7
7 4 3 7 5 5 4 3 5 12 16 16 8 9 15 13 19 6 2 15 22 29 36 34 33 31 29 27 26 25 24 23 18 17 14 11 7 9 14 14 13 13 8 7
13 7 3 3 4 10 12 4 4 7 5 3 5 10 10 14 8 1 6 10 17 25 33 33 33 31 30 27 27 26 26 22 19 17 14 12 10 15 15 13 13 11 9 8
5 15 5 2 4 4 3 6 14 8 5 5 8 9 7 8 5 4 10 6 9 21 30 31 31 31 30 29 29 27 25 22 20 17 15 11 11 14 15 11 12 9 8 9
2 4 10 6 4 6 4 12 15 6 2 13 14 16 9 2 3 8 12 8 5 19 27 30 32 32 31 30 30 27 27 25 21 17 12 11 13 15 13 9 8 7 7 9
2 2 3 4 5 4 7 15 4 4 7 10 18 16 11 12 13 9 15 17 3 18 28 31 32 32 32 30 30 27 28 24 22 17 13 12 15 14 12 8 8 6 5 6
1 1 2 2 2 6 23 20 22 6 7 22 20 13 5 24 24 15 9 7 6 18 29 31 33 33 33 32 30 28 25 24 23 20 18 14 14 13 12 9 7 8 6 6
2 0 1 3 5 6 20 18 24 35 27 30 17 9 19 32 30 23 18 11 7 19 33 34 34 34 35 33 31 24 24 26 23 19 20 17 13 14 12 7 8 6 6 6
2 6 6 4 6 8 11 23 31 31 24 26 19 16 25 33 33 29 27 23 15 14 24 32 33 35 35 32 31 26 25 27 23 19 22 19 16 15 10 7 8 7 4 2
3 4 3 3 13 9 10 22 23 24 26 22 20 22 29 34 31 29 33 31 24 15 15 21 31 34 33 32 31 27 26 27 23 20 25 21 19 15 10 7 12 9 5 3
Wind_Direction
194 161 209 206 218 253 340 307 326 336 215 215 230 254 256 254 255 257 261 264 265 266 277 280 286 285 286 280 280 262 245 245 235 237 237 238 239 238 242 231 225 223 224 241
234 229 219 169 175 230 259 275 279 277 270 259 276 270 278 260 254 256 254 251 257 269 278 285 290 288 277 284 268 256 241 239 240 242 239 237 239 235 233 219 215 216 237 213
227 254 218 230 246 264 244 232 250 248 307 299 303 288 274 252 252 253 256 258 260 264 275 283 285 282 281 277 257 243 238 241 245 242 236 235 235 226 207 202 205 206 210 217
228 243 258 255 235 231 254 249 257 254 222 258 4 290 276 266 257 241 250 255 261 268 272 276 282 277 283 285 251 242 243 245 239 238 235 235 227 201 196 198 206 205 183 197
244 267 236 231 239 225 257 231 233 224 252 258 248 291 273 212 252 246 246 249 259 268 272 269 270 283 287 282 254 248 242 227 231 235 227 222 219 203 187 186 194 184 189 205
236 252 226 230 245 222 225 213 220 220 197 253 223 208 273 240 243 244 230 242 256 261 265 276 287 281 282 274 249 220 212 205 206 206 207 209 204 196 188 187 189 194 199 207
212 240 254 224 239 243 174 93 181 172 187 234 188 208 247 274 254 246 261 261 268 270 277 283 286 281 265 217 195 192 188 178 177 180 173 181 191 197 197 188 189 203 209 219
182 305 248 221 193 206 184 165 185 179 185 230 233 233 249 231 239 258 262 266 271 271 271 275 269 244 186 174 175 173 170 162 159 165 170 176 182 184 182 189 200 207 208 229
21 233 331 110 122 127 318 171 209 3 216 213 243 281 287 269 268 258 260 271 266 258 248 236 212 177 169 167 164 165 159 153 158 164 169 172 171 176 182 183 189 200 226 244
298 331 332 357 344 216 167 223 124 80 226 237 260 256 235 255 258 324 283 243 254 216 199 188 173 164 160 161 159 158 156 154 159 163 166 165 163 167 178 189 202 213 227 231
11 116 291 359 230 205 163 240 222 187 210 213 282 254 211 211 294 293 303 288 230 190 177 165 162 157 159 159 157 156 157 158 161 166 166 165 164 164 174 188 211 216 190 165
297 162 248 234 244 297 317 207 156 185 228 238 238 263 283 327 312 327 311 299 181 176 164 162 158 158 160 159 159 159 160 161 162 162 164 165 164 142 175 180 185 184 166 160
315 19 339 330 13 32 234 289 188 260 263 237 225 257 354 358 328 341 317 152 154 163 160 160 159 161 160 158 159 161 163 164 161 157 152 148 156 173 177 181 164 161 163 160
166 181 192 196 263 314 296 283 266 194 251 244 244 309 280 310 327 334 94 152 168 156 161 160 162 161 159 160 162 164 163 163 159 159 157 159 180 199 199 175 172 177 165 151
138 224 209 238 261 275 265 261 265 231 234 252 314 281 281 311 292 288 250 161 162 157 160 165 164 163 161 162 163 163 163 162 155 161 170 178 185 196 193 166 165 160 155 162
184 271 253 266 260 257 292 249 250 242 242 245 262 275 271 267 312 296 206 165 164 176 161 169 167 166 165 165 164 165 166 165 173 178 181 172 212 209 179 166 153 160 162 171
186 214 271 269 299 336 287 222 229 229 218 203 217 261 283 292 319 334 303 173 165 176 170 172 171 172 170 169 166 166 167 171 184 192 188 187 184 168 175 181 177 176 171 188
216 201 220 280 324 258 217 54 250 229 234 218 241 277 285 270 280 238 143 185 175 178 175 174 174 174 174 170 169 164 169 177 190 188 190 181 174 169 166 161 172 173 184 179
216 209 245 243 261 295 287 51 24 359 283 116 267 287 297 227 188 316 137 164 194 190 184 175 174 171 169 168 166 171 180 185 187 181 192 189 176 170 169 183 185 184 191 206
284 203 190 174 294 301 23 357 348 329 268 345 346 311 327 325 200 229 141 144 225 203 189 182 178 177 175 174 173 179 179 183 182 188 196 184 181 176 174 183 192 203 210 220
137 173 210 225 231 263 345 321 316 201 281 330 349 329 302 182 214 145 176 231 224 203 198 191 187 183 182 178 181 182 190 189 183 193 173 176 177 171 171 183 203 211 229 224
329 286 196 202 218 240 357 316 208 323 335 344 338 322 321 80 97 116 134 217 219 203 199 200 194 193 190 184 187 190 196 188 189 187 175 165 168 176 184 191 194 196 196 213
303 303 280 260 317 288 299 261 269 12 21 2 343 332 53 75 77 90 107 190 214 191 200 203 199 196 196 191 192 194 193 186 191 195 182 172 175 182 198 204 207 187 197 196
284 128 288 282 25 315 308 351 28 34 9 354 7 64 84 79 75 72 89 88 141 188 196 199 199 197 195 195 195 195 190 186 196 198 190 182 182 194 203 212 185 198 193 190
267 309 332 292 282 309 309 24 27 31 22 13 47 58 69 75 66 60 66 77 92 165 194 196 197 198 196 195 195 192 190 192 201 201 195 192 192 196 191 187 180 172 166 177
323 321 358 300 306 314 345 30 24 27 30 7 44 48 61 75 70 60 57 57 69 96 157 189 198 198 198 196 194 193 194 197 201 203 198 198 197 196 190 188 178 176 172 163
Height
1438 1445 1441 1436 1437 1440 1444 1446 1449 1441 1437 1439 1434 1424 1423 1428 1426 1421 1419 1418 1416 1413 1414 1415 1414 1413 1411 1411 1410 1409 1412 1413 1415 1415 1418 1420 1420 1422 1427 1432 1440 1445 1450 1449
1441 1434 1435 1436 1439 1442 1445 1448 1451 1446 1440 1441 1438 1423 1420 1420 1417 1413 1411 1409 1408 1408 1408 1407 1406 1405 1405 1404 1404 1405 1406 1407 1410 1412 1412 1414 1415 1419 1424 1432 1436 1441 1443 1447
1443 1435 1432 1436 1438 1440 1444 1447 1449 1452 1443 1434 1439 1421 1416 1407 1406 1404 1400 1400 1400 1400 1401 1400 1400 1399 1398 1398 1398 1399 1401 1403 1405 1406 1407 1410 1415 1419 1423 1429 1432 1438 1444 1447
1438 1432 1432 1434 1434 1439 1445 1442 1443 1445 1451 1454 1437 1435 1411 1398 1398 1397 1393 1391 1391 1393 1392 1393 1393 1391 1390 1390 1392 1395 1396 1397 1400 1402 1404 1407 1410 1415 1419 1425 1430 1435 1441 1444
1433 1429 1429 1430 1431 1433 1437 1438 1441 1443 1446 1448 1443 1452 1371 1392 1390 1385 1383 1384 1382 1381 1383 1385 1386 1383 1382 1382 1384 1387 1389 1393 1395 1399 1402 1406 1411 1417 1421 1425 1429 1434 1439 1444
1427 1424 1426 1428 1426 1427 1430 1434 1437 1440 1448 1458 1437 1446 1375 1389 1381 1379 1376 1376 1375 1376 1377 1377 1377 1376 1374 1374 1376 1380 1385 1388 1392 1398 1402 1407 1412 1417 1420 1424 1429 1434 1439 1441
1423 1425 1421 1422 1428 1425 1428 1439 1454 1459 1458 1439 1421 1432 1380 1378 1371 1376 1374 1372 1372 1372 1372 1371 1370 1368 1367 1369 1374 1380 1385 1387 1392 1399 1403 1409 1414 1418 1421 1424 1429 1433 1437 1439
1438 1434 1418 1415 1420 1424 1427 1434 1444 1440 1441 1429 1415 1411 1383 1368 1364 1362 1365 1364 1365 1365 1366 1366 1364 1365 1366 1371 1376 1381 1386 1388 1394 1400 1405 1409 1414 1418 1421 1425 1429 1433 1437 1438
1430 1424 1416 1415 1415 1419 1423 1429 1422 1431 1426 1433 1414 1389 1372 1361 1356 1362 1359 1359 1356 1358 1359 1360 1362 1365 1368 1374 1380 1384 1387 1390 1397 1402 1406 1411 1415 1418 1421 1425 1429 1432 1434 1435
1431 1433 1421 1416 1416 1415 1418 1417 1429 1436 1434 1432 1409 1396 1380 1364 1354 1357 1357 1356 1353 1354 1356 1359 1364 1368 1373 1377 1382 1386 1390 1394 1400 1404 1409 1412 1416 1419 1422 1426 1429 1431 1432 1433
1432 1435 1429 1422 1419 1420 1419 1422 1420 1420 1424 1424 1416 1389 1361 1360 1360 1360 1354 1347 1347 1351 1355 1360 1366 1371 1376 1379 1384 1388 1392 1397 1402 1407 1411 1414 1417 1420 1423 1426 1428 1430 1432 1433
1437 1439 1437 1424 1416 1414 1417 1416 1419 1427 1417 1416 1411 1380 1349 1357 1358 1358 1351 1343 1345 1351 1356 1362 1367 1372 1377 1381 1385 1390 1395 1400 1405 1409 1413 1416 1419 1421 1423 1426 1427 1429 1431 1434
1434 1439 1440 1428 1419 1417 1420 1415 1416 1421 1420 1413 1409 1380 1355 1358 1359 1358 1353 1352 1349 1353 1359 1365 1370 1374 1378 1382 1387 1392 1398 1402 1406 1410 1413 1416 1420 1422 1424 1425 1427 1429 1431 1434
1432 1438 1436 1445 1429 1430 1430 1418 1416 1418 1425 1404 1382 1385 1360 1366 1366 1361 1358 1359 1362 1355 1361 1366 1372 1375 1379 1384 1388 1394 1400 1404 1408 1411 1414 1417 1420 1422 1424 1425 1427 1429 1432 1434
1434 1435 1432 1428 1427 1427 1424 1419 1414 1412 1410 1411 1394 1390 1369 1375 1364 1360 1359 1357 1363 1361 1362 1368 1372 1377 1381 1385 1390 1395 1401 1405 1408 1411 1414 1417 1420 1422 1424 1425 1427 1429 1433 1435
1432 1433 1428 1424 1421 1418 1419 1410 1407 1402 1400 1400 1398 1381 1369 1363 1359 1356 1350 1352 1357 1366 1363 1369 1373 1378 1381 1387 1391 1396 1400 1405 1408 1412 1414 1418 1420 1422 1423 1426 1428 1431 1433 1435
1430 1430 1428 1418 1412 1413 1401 1391 1393 1391 1390 1391 1392 1372 1366 1363 1359 1355 1352 1350 1352 1362 1363 1367 1372 1378 1382 1387 1392 1395 1400 1405 1408 1412 1415 1418 1419 1421 1423 1426 1428 1431 1433 1435
1422 1427 1428 1418 1415 1414 1382 1380 1381 1383 1380 1379 1374 1369 1364 1362 1360 1358 1355 1357 1357 1362 1361 1366 1372 1378 1384 1388 1393 1397 1401 1405 1409 1412 1415 1417 1419 1421 1423 1426 1429 1431 1433 1434
1417 1422 1423 1421 1410 1394 1381 1386 1388 1387 1378 1374 1373 1369 1359 1356 1358 1356 1354 1356 1361 1364 1364 1364 1371 1378 1383 1388 1393 1398 1402 1405 1409 1413 1415 1418 1419 1421 1424 1426 1429 1431 1433 1434
1407 1410 1416 1414 1409 1393 1386 1391 1391 1389 1383 1376 1370 1365 1361 1360 1363 1358 1355 1358 1362 1366 1366 1368 1373 1379 1384 1388 1393 1397 1401 1405 1409 1413 1416 1418 1420 1422 1424 1427 1429 1431 1432 1434
1404 1410 1410 1412 1411 1394 1390 1392 1393 1383 1380 1371 1366 1361 1357 1357 1356 1350 1351 1347 1360 1364 1366 1370 1374 1378 1383 1388 1393 1397 1402 1406 1410 1413 1417 1419 1421 1423 1425 1427 1429 1431 1432 1433
1406 1405 1400 1402 1399 1388 1393 1388 1378 1379 1375 1372 1365 1360 1358 1356 1353 1350 1344 1356 1358 1361 1362 1369 1374 1379 1384 1388 1392 1397 1402 1407 1411 1414 1417 1419 1421 1423 1425 1427 1429 1430 1431 1433
1406 1412 1406 1404 1398 1399 1389 1385 1377 1375 1372 1368 1366 1360 1359 1355 1353 1353 1355 1358 1357 1356 1360 1366 1372 1378 1384 1388 1392 1397 1402 1407 1410 1414 1417 1419 1422 1424 1426 1427 1428 1430 1431 1433
1409 1408 1407 1404 1399 1396 1385 1379 1372 1368 1370 1368 1364 1363 1360 1356 1357 1361 1359 1354 1353 1356 1360 1364 1370 1376 1382 1387 1391 1397 1402 1407 1410 1413 1417 1420 1422 1425 1426 1428 1429 1430 1432 1433
1412 1407 1406 1403 1398 1392 1384 1376 1372 1376 1373 1374 1367 1366 1362 1356 1358 1361 1360 1358 1356 1360 1361 1364 1369 1375 1380 1385 1391 1396 1402 1406 1410 1413 1417 1420 1423 1425 1427 1428 1430 1432 1433 1435
1412 1410 1408 1406 1397 1394 1387 1385 1384 1384 1374 1379 1376 1372 1367 1360 1362 1365 1363 1363 1361 1359 1361 1366 1370 1375 1379 1385 1390 1396 1401 1405 1409 1412 1416 1420 1423 1426 1428 1429 1431 1433 1434 1436